User: anonymous   Login
Location: Unspecified
(0.0000°N, 0.0000°E)
Time: 21:08:25
(UTC+00:00)
Language:

COSMOS 2409 - Orbit

View from above orbital plane
View from above orbital plane
View from above satellite
View from above satellite

Ground track
Ground track

The orbit data is extracted from the following two-line orbital elements,

1 28380U 04028A   18172.73756279  .00000060  00000-0  45439-4 0  9995
2 28380  82.9618  74.7837 0040100 128.7224 231.7529 13.76054449698829
Epoch (UTC): 21 June 2018 17:42:05
Eccentricity: 0.0040100
inclination: 82.9618°
perigee height: 948 km
apogee height: 1007 km
right ascension of ascending node: 74.7837°
argument of perigee: 128.7224°
revolutions per day: 13.76054449
mean anomaly at epoch: 231.7529°
orbit number at epoch: 69882

The dashed part of the orbit path shows where the satellite is in the earth's shadow,  

DLR